KUIPER-00066

导读

KUIPER-00066是美国亚马逊“柯伊伯计划”卫星互联网星座的组成卫星,该计划计划在近地轨道部署3236颗卫星,旨在为全球提供高速卫星互联网接入服务。KUIPER-00066于2025年6月23日发射,是计划推进过程中的一颗量产卫星,将助力亚马逊完成低轨卫星组网,填补全球网络覆盖空白,提供不同速率、低成本的宽带连接服务。

基本信息
目录编号:
64526
目录名称:
KUIPER-00066
国际标识:
2025-134AC
轨道中心:
EARTH
卫星名称:
KUIPER-00066
卫星全名:
KUIPER-00066
卫星状态:
在轨 (已飞行446 天)
发射日期:
2025-06-23 UTC
国别 :
美国 (US)
星等 :
--
该卫星已列入 空间交会检测服务 Space Conjunction Data Service (SCDS) ,当前飞行风险评估等级: 无高风险
轨道信息
数据来源 国际轨道数据 AOE轨道数据
星历时间 2026-09-12T02:25:57+0800
11小时前
查看轨道信息
2026-09-11T00:00:00+0800
1天前
查看轨道信息
半长轴 7007.584km 7007.679km
偏心率 0.0001009 0.0000801
轨道倾角 51.898° 51.901°
近地点辐角 140.679° 82.488°
升交点赤经 75.173° 80.043°
平近点角 219.425° 166.289°
近地点 628.739km 628.98km
远地点 630.155km 630.104km
周期 97.300分钟 97.302分钟
每日圈数 14.799611 14.799311
详细信息
使用方式:
暂无
2D轨道图
3D轨道图
轨道高度分析图
轨道倾角分析图
轨道综合分析图
查看轨道综合分析图
交会数据列表
事件ID 空间交会对象 最接近时刻(TCA) 交会距离 交会风险概率(CRP) 交会风险指数(CRI) 操作
CDM_260914-042803-487006-452621
2026-09-14T
04:28:53+0000
2.267 km
极远距离
1.925806E-6 低风险 0.41
与全量物体交会距离演化趋势
与全量物体交会风险概率演化趋势